Time,TemperatureF,DewpointF,PressureIn,WindDirection,WindDirectionDegrees,WindSpeedMPH,WindSpeedGustMPH,Humidity,HourlyPrecipIn,Conditions,Clouds,dailyrainin,SoftwareType,DateUTC
2013-09-18 00:00:00,53.9,51.0,30.20,NNE,28,0.0,0.0,90,0.00,,CLR,0.00,VWS V14.01,2013-09-18 04:00:00,
2013-09-18 00:01:00,53.9,51.0,30.20,NNE,28,0.0,0.0,90,0.00,,CLR,0.00,VWS V14.01,2013-09-18 04:01:00,
2013-09-18 00:06:00,53.8,50.9,30.20,NNE,28,0.0,0.0,90,0.00,,CLR,0.00,VWS V14.01,2013-09-18 04:06:00,
2013-09-18 00:11:00,53.6,50.7,30.20,NNE,28,0.0,0.0,90,0.00,,CLR,0.00,VWS V14.01,2013-09-18 04:11:00,
2013-09-18 00:15:00,55.0,52.1,30.21,NNE,28,0.0,0.0,90,0.00,,CLR,0.01,VWS V14.01,2013-09-18 04:15:00,
2013-09-18 00:16:00,53.5,50.6,30.20,NNE,28,0.0,0.0,90,0.00,,CLR,0.00,VWS V14.01,2013-09-18 04:16:00,
2013-09-18 00:21:00,53.3,50.5,30.20,NNE,28,0.0,0.0,90,0.00,,CLR,0.00,VWS V14.01,2013-09-18 04:21:00,
2013-09-18 00:26:00,53.2,50.7,30.20,NNE,28,0.0,0.0,91,0.00,,CLR,0.00,VWS V14.01,2013-09-18 04:26:00,
2013-09-18 00:30:00,54.8,51.9,30.21,NNE,28,0.0,0.0,90,0.00,,CLR,0.01,VWS V14.01,2013-09-18 04:30:00,
2013-09-18 00:31:00,53.1,50.2,30.19,NNE,28,0.0,0.0,90,0.00,,CLR,0.00,VWS V14.01,2013-09-18 04:31:00,
2013-09-18 00:36:00,52.9,50.3,30.19,NNE,28,0.0,0.0,91,0.00,,CLR,0.00,VWS V14.01,2013-09-18 04:36:00,
2013-09-18 00:41:00,52.8,50.2,30.19,NNE,28,0.0,0.0,91,0.00,,CLR,0.00,VWS V14.01,2013-09-18 04:41:00,
2013-09-18 00:45:00,54.4,51.5,30.20,NNE,28,0.0,0.0,90,0.00,,CLR,0.01,VWS V14.01,2013-09-18 04:45:00,
2013-09-18 00:46:00,52.6,50.0,30.19,NNE,28,0.0,0.0,91,0.00,,CLR,0.00,VWS V14.01,2013-09-18 04:46:00,
2013-09-18 00:51:00,52.5,50.0,30.19,NNE,28,0.0,0.0,91,0.00,,CLR,0.00,VWS V14.01,2013-09-18 04:51:00,
2013-09-18 00:56:00,52.5,50.0,30.19,NNE,28,0.0,0.0,91,0.00,,CLR,0.00,VWS V14.01,2013-09-18 04:56:00,
2013-09-18 01:00:00,53.9,51.0,30.20,NNE,28,0.0,0.0,90,0.00,,CLR,0.01,VWS V14.01,2013-09-18 05:00:00,
2013-09-18 01:01:00,52.5,50.0,30.18,NNE,28,0.0,0.0,91,0.00,,,0.00,VWS V14.01,2013-09-18 05:01:00,
2013-09-18 01:06:00,52.5,50.2,30.18,NNE,28,0.0,0.0,92,0.00,,,0.00,VWS V14.01,2013-09-18 05:06:00,
2013-09-18 01:11:00,52.5,50.2,30.18,NNE,28,0.0,0.0,92,0.00,,,0.00,VWS V14.01,2013-09-18 05:11:00,
2013-09-18 01:15:00,53.6,50.7,30.20,NNE,28,0.0,0.0,90,0.00,,CLR,0.00,VWS V14.01,2013-09-18 05:15:00,
2013-09-18 01:16:00,52.5,50.2,30.18,NNE,28,0.0,0.0,92,0.00,,,0.00,VWS V14.01,2013-09-18 05:16:00,
2013-09-18 01:21:00,52.5,50.2,30.18,NNE,28,0.0,0.0,92,0.00,,,0.00,VWS V14.01,2013-09-18 05:21:00,
2013-09-18 01:26:00,52.5,50.2,30.18,NNE,28,0.0,0.0,92,0.00,,,0.00,VWS V14.01,2013-09-18 05:26:00,
2013-09-18 01:30:00,53.1,50.2,30.19,NNE,28,0.0,0.0,90,0.00,,CLR,0.00,VWS V14.01,2013-09-18 05:30:00,
2013-09-18 01:31:00,52.6,50.6,30.18,NNE,28,0.0,0.0,93,0.00,,,0.00,VWS V14.01,2013-09-18 05:31:00,
2013-09-18 01:36:00,52.8,50.8,30.18,NNE,28,0.0,0.0,93,0.00,,,0.00,VWS V14.01,2013-09-18 05:36:00,
2013-09-18 01:41:00,52.9,50.9,30.18,NNE,28,0.0,0.0,93,0.00,,,0.00,VWS V14.01,2013-09-18 05:41:00,
2013-09-18 01:45:00,52.8,50.2,30.19,NNE,28,0.0,0.0,91,0.00,,CLR,0.00,VWS V14.01,2013-09-18 05:45:00,
2013-09-18 01:46:00,53.1,51.1,30.18,NNE,28,0.0,0.0,93,0.00,,,0.00,VWS V14.01,2013-09-18 05:46:00,
2013-09-18 01:51:00,53.1,51.1,30.18,NNE,28,0.0,0.0,93,0.00,,,0.00,VWS V14.01,2013-09-18 05:51:00,
2013-09-18 01:56:00,53.2,51.2,30.18,NNE,28,0.0,0.0,93,0.00,,,0.00,VWS V14.01,2013-09-18 05:56:00,
2013-09-18 02:00:00,52.5,50.0,30.18,NNE,28,0.0,0.0,91,0.00,,CLR,0.00,VWS V14.01,2013-09-18 06:00:00,
2013-09-18 02:01:00,53.3,51.3,30.18,NNE,28,0.0,0.0,93,0.00,,CLR,0.00,VWS V14.01,2013-09-18 06:01:00,
2013-09-18 02:06:00,53.3,51.3,30.18,NNE,28,0.0,0.0,93,0.00,,CLR,0.00,VWS V14.01,2013-09-18 06:06:00,
2013-09-18 02:11:00,53.5,51.5,30.18,NNE,28,0.0,0.0,93,0.00,,CLR,0.00,VWS V14.01,2013-09-18 06:11:00,
2013-09-18 02:15:00,52.5,50.2,30.18,NNE,28,0.0,0.0,92,0.00,,CLR,0.00,VWS V14.01,2013-09-18 06:15:00,
2013-09-18 02:16:00,53.5,51.5,30.18,NNE,28,0.0,0.0,93,0.00,,CLR,0.00,VWS V14.01,2013-09-18 06:16:00,
2013-09-18 02:21:00,53.5,51.5,30.18,NNE,28,0.0,0.0,93,0.00,,CLR,0.00,VWS V14.01,2013-09-18 06:21:00,
2013-09-18 02:26:00,53.5,51.5,30.18,NNE,28,0.0,0.0,93,0.00,,CLR,0.00,VWS V14.01,2013-09-18 06:26:00,
2013-09-18 02:30:00,52.6,50.6,30.18,NNE,28,0.0,0.0,93,0.00,,CLR,0.00,VWS V14.01,2013-09-18 06:30:00,
2013-09-18 02:31:00,53.5,51.5,30.18,NNE,28,0.0,0.0,93,0.00,,CLR,0.00,VWS V14.01,2013-09-18 06:31:00,
2013-09-18 02:36:00,53.5,51.5,30.18,NNE,28,0.0,0.0,93,0.00,,CLR,0.00,VWS V14.01,2013-09-18 06:36:00,
2013-09-18 02:41:00,53.5,51.5,30.18,NNE,28,0.0,0.0,93,0.00,,CLR,0.00,VWS V14.01,2013-09-18 06:41:00,
2013-09-18 02:45:00,52.9,50.9,30.18,NNE,28,0.0,0.0,93,0.00,,CLR,0.00,VWS V14.01,2013-09-18 06:45:00,
2013-09-18 02:46:00,53.3,51.3,30.18,NNE,28,0.0,0.0,93,0.00,,CLR,0.00,VWS V14.01,2013-09-18 06:46:00,
2013-09-18 02:51:00,53.2,51.2,30.18,NNE,28,0.0,0.0,93,0.00,,CLR,0.00,VWS V14.01,2013-09-18 06:51:00,
2013-09-18 02:56:00,53.1,51.1,30.18,NNE,28,0.0,0.0,93,0.00,,CLR,0.00,VWS V14.01,2013-09-18 06:56:00,
2013-09-18 03:00:00,53.3,51.3,30.18,NNE,28,0.0,0.0,93,0.00,,CLR,0.00,VWS V14.01,2013-09-18 07:00:00,
2013-09-18 03:01:00,53.1,51.1,30.17,NNE,28,0.0,0.0,93,0.00,,CLR,0.00,VWS V14.01,2013-09-18 07:01:00,
2013-09-18 03:06:00,53.1,51.1,30.17,NNE,28,0.0,0.0,93,0.00,,CLR,0.00,VWS V14.01,2013-09-18 07:06:00,
2013-09-18 03:11:00,53.2,51.5,30.17,NNE,28,0.0,0.0,94,0.00,,CLR,0.00,VWS V14.01,2013-09-18 07:11:00,
2013-09-18 03:15:00,53.5,51.5,30.18,NNE,28,0.0,0.0,93,0.00,,CLR,0.00,VWS V14.01,2013-09-18 07:15:00,
2013-09-18 03:16:00,53.3,51.3,30.17,NNE,28,0.0,0.0,93,0.00,,CLR,0.00,VWS V14.01,2013-09-18 07:16:00,
2013-09-18 03:21:00,53.3,51.3,30.17,NNE,28,0.0,0.0,93,0.00,,CLR,0.00,VWS V14.01,2013-09-18 07:21:00,
2013-09-18 03:26:00,53.3,51.3,30.17,NNE,28,0.0,0.0,93,0.00,,CLR,0.00,VWS V14.01,2013-09-18 07:26:00,
2013-09-18 03:30:00,53.5,51.5,30.18,NNE,28,0.0,0.0,93,0.00,,CLR,0.00,VWS V14.01,2013-09-18 07:30:00,
2013-09-18 03:31:00,53.3,51.6,30.17,NNE,28,0.0,0.0,94,0.00,,CLR,0.00,VWS V14.01,2013-09-18 07:31:00,
2013-09-18 03:36:00,53.3,51.3,30.17,NNE,28,0.0,0.0,93,0.00,,CLR,0.00,VWS V14.01,2013-09-18 07:36:00,
2013-09-18 03:41:00,53.3,51.3,30.17,NNE,28,0.0,0.0,93,0.00,,CLR,0.00,VWS V14.01,2013-09-18 07:41:00,
2013-09-18 03:45:00,53.3,51.3,30.18,NNE,28,0.0,0.0,93,0.00,,CLR,0.00,VWS V14.01,2013-09-18 07:45:00,
2013-09-18 03:46:00,53.2,51.2,30.16,NNE,28,0.0,0.0,93,0.00,,CLR,0.00,VWS V14.01,2013-09-18 07:46:00,
2013-09-18 03:51:00,53.2,51.5,30.16,NNE,28,0.0,0.0,94,0.00,,CLR,0.00,VWS V14.01,2013-09-18 07:51:00,
2013-09-18 03:56:00,53.2,51.5,30.16,NNE,28,0.0,0.0,94,0.00,,CLR,0.00,VWS V14.01,2013-09-18 07:56:00,
2013-09-18 04:00:00,53.1,51.1,30.17,NNE,28,0.0,0.0,93,0.00,,CLR,0.00,VWS V14.01,2013-09-18 08:00:00,
2013-09-18 04:01:00,53.3,51.6,30.16,NNE,28,0.0,0.0,94,0.00,,,0.00,VWS V14.01,2013-09-18 08:01:00,
2013-09-18 04:06:00,53.3,51.6,30.16,NNE,28,0.0,0.0,94,0.00,,,0.00,VWS V14.01,2013-09-18 08:06:00,
2013-09-18 04:11:00,53.3,51.6,30.16,NNE,28,0.0,0.0,94,0.00,,,0.00,VWS V14.01,2013-09-18 08:11:00,
2013-09-18 04:15:00,53.3,51.3,30.17,NNE,28,0.0,0.0,93,0.00,,CLR,0.00,VWS V14.01,2013-09-18 08:15:00,
2013-09-18 04:16:00,53.3,51.6,30.16,NNE,28,0.0,0.0,94,0.00,,,0.00,VWS V14.01,2013-09-18 08:16:00,
2013-09-18 04:21:00,53.5,51.8,30.16,NNE,28,0.0,0.0,94,0.00,,,0.00,VWS V14.01,2013-09-18 08:21:00,
2013-09-18 04:26:00,53.3,51.6,30.16,NNE,28,0.0,0.0,94,0.00,,,0.00,VWS V14.01,2013-09-18 08:26:00,
2013-09-18 04:30:00,53.3,51.6,30.17,NNE,28,0.0,0.0,94,0.00,,CLR,0.00,VWS V14.01,2013-09-18 08:30:00,
2013-09-18 04:31:00,53.2,51.2,30.16,NNE,28,0.0,0.0,93,0.00,,,0.00,VWS V14.01,2013-09-18 08:31:00,
2013-09-18 04:36:00,53.2,51.5,30.16,NNE,28,0.0,0.0,94,0.00,,,0.00,VWS V14.01,2013-09-18 08:36:00,
2013-09-18 04:41:00,53.1,51.4,30.16,NNE,28,0.0,0.0,94,0.00,,,0.00,VWS V14.01,2013-09-18 08:41:00,
2013-09-18 04:45:00,53.2,51.2,30.16,NNE,28,0.0,0.0,93,0.00,,CLR,0.00,VWS V14.01,2013-09-18 08:45:00,
2013-09-18 04:46:00,53.1,51.4,30.16,NNE,28,0.0,0.0,94,0.00,,,0.00,VWS V14.01,2013-09-18 08:46:00,
2013-09-18 04:51:00,53.1,51.4,30.16,NNE,28,0.0,0.0,94,0.00,,,0.00,VWS V14.01,2013-09-18 08:51:00,
2013-09-18 04:56:00,53.2,51.5,30.16,NNE,28,0.0,0.0,94,0.00,,,0.00,VWS V14.01,2013-09-18 08:56:00,
2013-09-18 05:00:00,53.3,51.6,30.16,NNE,28,0.0,0.0,94,0.00,,CLR,0.00,VWS V14.01,2013-09-18 09:00:00,
2013-09-18 05:01:00,53.3,51.6,30.16,NNE,28,0.0,1.0,94,0.00,,,0.00,VWS V14.01,2013-09-18 09:01:00,
2013-09-18 05:06:00,53.3,51.6,30.16,NNE,28,0.0,1.0,94,0.00,,,0.00,VWS V14.01,2013-09-18 09:06:00,
2013-09-18 05:11:00,53.5,51.8,30.16,NNE,28,0.0,0.0,94,0.00,,,0.00,VWS V14.01,2013-09-18 09:11:00,
2013-09-18 05:15:00,53.3,51.6,30.16,NNE,28,0.0,0.0,94,0.00,,CLR,0.00,VWS V14.01,2013-09-18 09:15:00,
2013-09-18 05:16:00,53.5,51.5,30.16,NNE,28,0.0,0.0,93,0.00,,,0.00,VWS V14.01,2013-09-18 09:16:00,
2013-09-18 05:21:00,53.5,51.5,30.16,NNE,28,0.0,0.0,93,0.00,,,0.00,VWS V14.01,2013-09-18 09:21:00,
2013-09-18 05:26:00,53.5,51.5,30.16,NNE,28,0.0,0.0,93,0.00,,,0.00,VWS V14.01,2013-09-18 09:26:00,
2013-09-18 05:30:00,53.3,51.3,30.16,NNE,28,0.0,0.0,93,0.00,,CLR,0.00,VWS V14.01,2013-09-18 09:30:00,
2013-09-18 05:31:00,53.5,51.5,30.16,NNE,28,0.0,0.0,93,0.00,,,0.00,VWS V14.01,2013-09-18 09:31:00,
2013-09-18 05:36:00,53.5,51.5,30.16,NNE,28,0.0,0.0,93,0.00,,,0.00,VWS V14.01,2013-09-18 09:36:00,
2013-09-18 05:41:00,53.5,51.5,30.16,NNE,28,0.0,0.0,93,0.00,,,0.00,VWS V14.01,2013-09-18 09:41:00,
2013-09-18 05:45:00,53.1,51.4,30.16,NNE,28,0.0,0.0,94,0.00,,CLR,0.00,VWS V14.01,2013-09-18 09:45:00,
2013-09-18 05:46:00,53.5,51.5,30.16,NNE,28,0.0,0.0,93,0.00,,,0.00,VWS V14.01,2013-09-18 09:46:00,
2013-09-18 05:51:00,53.5,51.5,30.16,NNE,28,0.0,0.0,93,0.00,,,0.00,VWS V14.01,2013-09-18 09:51:00,
2013-09-18 05:56:00,53.5,51.5,30.16,NNE,28,0.0,0.0,93,0.00,,,0.00,VWS V14.01,2013-09-18 09:56:00,
2013-09-18 06:00:00,53.3,51.6,30.16,NNE,28,0.0,0.0,94,0.00,,CLR,0.00,VWS V14.01,2013-09-18 10:00:00,
2013-09-18 06:01:00,53.6,51.6,30.16,NNE,28,0.0,0.0,93,0.00,,FEW046,0.00,VWS V14.01,2013-09-18 10:01:00,
2013-09-18 06:06:00,53.6,51.6,30.16,NNE,28,0.0,0.0,93,0.00,,FEW046,0.00,VWS V14.01,2013-09-18 10:06:00,
2013-09-18 06:11:00,53.6,51.6,30.16,NNE,28,0.0,0.0,93,0.00,,FEW046,0.00,VWS V14.01,2013-09-18 10:11:00,
2013-09-18 06:15:00,53.5,51.5,30.16,NNE,28,0.0,0.0,93,0.00,,CLR,0.00,VWS V14.01,2013-09-18 10:15:00,
2013-09-18 06:16:00,53.5,51.5,30.16,NNE,28,0.0,0.0,93,0.00,,FEW046,0.00,VWS V14.01,2013-09-18 10:16:00,
2013-09-18 06:21:00,53.5,51.5,30.16,NNE,28,0.0,0.0,93,0.00,,FEW046,0.00,VWS V14.01,2013-09-18 10:21:00,
2013-09-18 06:26:00,53.5,51.5,30.16,NNE,28,0.0,0.0,93,0.00,,FEW046,0.00,VWS V14.01,2013-09-18 10:26:00,
2013-09-18 06:30:00,53.5,51.5,30.16,NNE,28,0.0,0.0,93,0.00,,CLR,0.00,VWS V14.01,2013-09-18 10:30:00,
2013-09-18 06:31:00,53.6,51.6,30.16,NNE,28,0.0,0.0,93,0.00,,FEW046,0.00,VWS V14.01,2013-09-18 10:31:00,
2013-09-18 06:36:00,53.6,51.6,30.16,NNE,28,0.0,0.0,93,0.00,,FEW046,0.00,VWS V14.01,2013-09-18 10:36:00,
2013-09-18 06:41:00,53.8,51.8,30.16,NNE,28,0.0,0.0,93,0.00,,FEW046,0.00,VWS V14.01,2013-09-18 10:41:00,
2013-09-18 06:45:00,53.5,51.5,30.16,NNE,28,0.0,0.0,93,0.00,,CLR,0.00,VWS V14.01,2013-09-18 10:45:00,
2013-09-18 06:46:00,53.8,51.8,30.17,NNE,28,0.0,0.0,93,0.00,,FEW046,0.00,VWS V14.01,2013-09-18 10:46:00,
2013-09-18 06:51:00,53.8,51.5,30.17,NNE,28,0.0,0.0,92,0.00,,FEW046,0.00,VWS V14.01,2013-09-18 10:51:00,
2013-09-18 06:56:00,53.6,51.3,30.17,NNE,28,0.0,0.0,92,0.00,,FEW046,0.00,VWS V14.01,2013-09-18 10:56:00,
2013-09-18 07:00:00,53.6,51.6,30.16,NNE,28,0.0,0.0,93,0.00,,CLR,0.00,VWS V14.01,2013-09-18 11:00:00,
2013-09-18 07:01:00,53.6,51.3,30.17,NNE,28,0.0,0.0,92,0.00,,FEW046,0.00,VWS V14.01,2013-09-18 11:01:00,
2013-09-18 07:06:00,53.6,51.3,30.17,NNE,28,0.0,0.0,92,0.00,,FEW046,0.00,VWS V14.01,2013-09-18 11:06:00,
2013-09-18 07:11:00,53.6,51.3,30.17,NNE,28,0.0,0.0,92,0.00,,FEW046,0.00,VWS V14.01,2013-09-18 11:11:00,
2013-09-18 07:15:00,53.5,51.5,30.16,NNE,28,0.0,0.0,93,0.00,,CLR,0.00,VWS V14.01,2013-09-18 11:15:00,
2013-09-18 07:16:00,53.6,51.3,30.18,NNE,28,0.0,0.0,92,0.00,,FEW046,0.00,VWS V14.01,2013-09-18 11:16:00,
2013-09-18 07:21:00,53.6,51.3,30.18,NNE,28,0.0,0.0,92,0.00,,FEW046,0.00,VWS V14.01,2013-09-18 11:21:00,
2013-09-18 07:26:00,53.6,51.3,30.18,NNE,28,0.0,0.0,92,0.00,,FEW046,0.00,VWS V14.01,2013-09-18 11:26:00,
2013-09-18 07:30:00,53.5,51.5,30.16,NNE,28,0.0,0.0,93,0.00,,CLR,0.00,VWS V14.01,2013-09-18 11:30:00,
2013-09-18 07:31:00,53.6,51.3,30.18,NNE,28,0.0,0.0,92,0.00,,FEW046,0.00,VWS V14.01,2013-09-18 11:31:00,
2013-09-18 07:36:00,53.8,51.5,30.18,NNE,28,0.0,0.0,92,0.00,,FEW046,0.00,VWS V14.01,2013-09-18 11:36:00,
2013-09-18 07:41:00,53.8,51.5,30.18,NNE,28,0.0,0.0,92,0.00,,FEW046,0.00,VWS V14.01,2013-09-18 11:41:00,
2013-09-18 07:45:00,53.8,51.8,30.17,NNE,28,0.0,0.0,93,0.00,,CLR,0.00,VWS V14.01,2013-09-18 11:45:00,
2013-09-18 07:46:00,53.9,51.6,30.18,NNE,28,0.0,0.0,92,0.00,,FEW046,0.00,VWS V14.01,2013-09-18 11:46:00,
2013-09-18 07:51:00,54.1,51.8,30.18,NNE,28,0.0,0.0,92,0.00,,FEW046,0.00,VWS V14.01,2013-09-18 11:51:00,
2013-09-18 07:56:00,54.2,51.9,30.18,NNE,28,0.0,0.0,92,0.00,,FEW046,0.00,VWS V14.01,2013-09-18 11:56:00,
2013-09-18 08:00:00,53.6,51.3,30.17,NNE,28,0.0,0.0,92,0.00,,CLR,0.00,VWS V14.01,2013-09-18 12:00:00,
2013-09-18 08:01:00,54.5,52.2,30.19,NNE,28,0.0,0.0,92,0.00,,SCT049,0.00,VWS V14.01,2013-09-18 12:01:00,
2013-09-18 08:06:00,54.7,52.1,30.19,NNE,28,0.0,0.0,91,0.00,,SCT049,0.00,VWS V14.01,2013-09-18 12:06:00,
2013-09-18 08:11:00,54.8,52.2,30.19,NNE,28,0.0,0.0,91,0.00,,SCT049,0.00,VWS V14.01,2013-09-18 12:11:00,
2013-09-18 08:15:00,53.6,51.3,30.18,NNE,28,0.0,0.0,92,0.00,,CLR,0.00,VWS V14.01,2013-09-18 12:15:00,
2013-09-18 08:16:00,55.0,52.4,30.18,NNE,28,0.0,0.0,91,0.00,,SCT049,0.00,VWS V14.01,2013-09-18 12:16:00,
2013-09-18 08:21:00,55.3,52.7,30.18,NNE,28,0.0,0.0,91,0.00,,SCT049,0.00,VWS V14.01,2013-09-18 12:21:00,
2013-09-18 08:26:00,55.6,52.7,30.18,NNE,28,0.0,0.0,90,0.00,,SCT049,0.00,VWS V14.01,2013-09-18 12:26:00,
2013-09-18 08:30:00,53.6,51.3,30.18,NNE,28,0.0,0.0,92,0.00,,CLR,0.00,VWS V14.01,2013-09-18 12:30:00,
2013-09-18 08:31:00,55.7,52.8,30.18,NE,48,0.0,0.0,90,0.00,,SCT049,0.00,VWS V14.01,2013-09-18 12:31:00,
2013-09-18 08:36:00,55.9,52.7,30.18,NE,48,0.0,0.0,89,0.00,,SCT049,0.00,VWS V14.01,2013-09-18 12:36:00,
2013-09-18 08:41:00,56.0,52.8,30.18,NE,48,0.0,0.0,89,0.00,,SCT049,0.00,VWS V14.01,2013-09-18 12:41:00,
2013-09-18 08:45:00,53.9,51.6,30.18,NNE,28,0.0,0.0,92,0.00,,CLR,0.00,VWS V14.01,2013-09-18 12:45:00,
2013-09-18 08:46:00,56.2,52.7,30.18,NE,48,0.0,0.0,88,0.00,,SCT049,0.00,VWS V14.01,2013-09-18 12:46:00,
2013-09-18 08:51:00,56.2,52.7,30.18,NE,48,0.0,0.0,88,0.00,,SCT049,0.00,VWS V14.01,2013-09-18 12:51:00,
2013-09-18 08:56:00,56.3,53.1,30.18,NE,48,0.0,0.0,89,0.00,,SCT049,0.00,VWS V14.01,2013-09-18 12:56:00,
2013-09-18 09:00:00,54.4,52.1,30.19,NNE,28,0.0,0.0,92,0.00,,CLR,0.00,VWS V14.01,2013-09-18 13:00:00,
2013-09-18 09:01:00,56.5,53.0,30.18,NE,48,0.0,0.0,88,0.00,,CLR,0.00,VWS V14.01,2013-09-18 13:01:00,
2013-09-18 09:06:00,56.6,53.1,30.18,NE,48,0.0,0.0,88,0.00,,CLR,0.00,VWS V14.01,2013-09-18 13:06:00,
2013-09-18 09:11:00,56.6,53.1,30.18,NE,48,0.0,0.0,88,0.00,,CLR,0.00,VWS V14.01,2013-09-18 13:11:00,
2013-09-18 09:15:00,54.8,52.2,30.18,NNE,28,0.0,0.0,91,0.00,,CLR,0.00,VWS V14.01,2013-09-18 13:15:00,
2013-09-18 09:16:00,56.7,53.2,30.18,NE,48,0.0,0.0,88,0.00,,CLR,0.00,VWS V14.01,2013-09-18 13:16:00,
2013-09-18 09:21:00,56.9,53.4,30.18,NE,48,0.0,0.0,88,0.00,,CLR,0.00,VWS V14.01,2013-09-18 13:21:00,
2013-09-18 09:26:00,56.9,53.4,30.18,NE,48,0.0,0.0,88,0.00,,CLR,0.00,VWS V14.01,2013-09-18 13:26:00,
2013-09-18 09:30:00,55.7,52.8,30.18,NNE,28,0.0,0.0,90,0.00,,CLR,0.00,VWS V14.01,2013-09-18 13:30:00,
2013-09-18 09:31:00,57.0,53.5,30.19,NE,48,0.0,0.0,88,0.00,,CLR,0.00,VWS V14.01,2013-09-18 13:31:00,
2013-09-18 09:37:00,57.3,53.8,30.19,ENE,75,0.0,1.0,88,0.00,,CLR,0.00,VWS V14.01,2013-09-18 13:37:00,
2013-09-18 09:42:00,57.5,53.7,30.19,ENE,75,0.0,0.0,87,0.00,,CLR,0.00,VWS V14.01,2013-09-18 13:42:00,
2013-09-18 09:45:00,56.2,53.0,30.18,NE,48,0.0,0.0,89,0.00,,CLR,0.00,VWS V14.01,2013-09-18 13:45:00,
2013-09-18 09:47:00,57.8,54.0,30.18,ENE,75,0.0,0.0,87,0.00,,CLR,0.00,VWS V14.01,2013-09-18 13:47:00,
2013-09-18 09:52:00,58.0,54.2,30.18,ENE,75,0.0,0.0,87,0.00,,CLR,0.00,VWS V14.01,2013-09-18 13:52:00,
2013-09-18 09:57:00,58.1,53.9,30.18,ENE,75,0.0,0.0,86,0.00,,CLR,0.00,VWS V14.01,2013-09-18 13:57:00,
2013-09-18 10:00:00,56.5,53.0,30.18,NE,48,0.0,0.0,88,0.00,,CLR,0.00,VWS V14.01,2013-09-18 14:00:00,
2013-09-18 10:02:00,58.3,54.5,30.19,ENE,75,0.0,0.0,87,0.00,,SCT050,0.00,VWS V14.01,2013-09-18 14:02:00,
2013-09-18 10:07:00,58.3,54.1,30.19,ENE,76,0.0,1.0,86,0.00,,SCT050,0.00,VWS V14.01,2013-09-18 14:07:00,
2013-09-18 10:12:00,58.4,54.2,30.19,ENE,76,0.0,1.0,86,0.00,,SCT050,0.00,VWS V14.01,2013-09-18 14:12:00,
2013-09-18 10:15:00,56.6,53.1,30.18,NE,48,0.0,0.0,88,0.00,,CLR,0.00,VWS V14.01,2013-09-18 14:15:00,
2013-09-18 10:17:00,58.4,53.9,30.19,ENE,78,0.0,0.0,85,0.00,,SCT050,0.00,VWS V14.01,2013-09-18 14:17:00,
2013-09-18 10:22:00,58.6,54.4,30.19,SSE,160,0.0,2.0,86,0.00,,SCT050,0.00,VWS V14.01,2013-09-18 14:22:00,
2013-09-18 10:27:00,58.7,54.2,30.19,SSE,160,2.0,2.0,85,0.00,,SCT050,0.00,VWS V14.01,2013-09-18 14:27:00,
2013-09-18 10:30:00,57.0,53.5,30.19,NE,48,0.0,0.0,88,0.00,,CLR,0.00,VWS V14.01,2013-09-18 14:30:00,
2013-09-18 10:32:00,58.9,54.4,30.18,SSE,160,0.0,2.0,85,0.00,,SCT050,0.00,VWS V14.01,2013-09-18 14:32:00,
2013-09-18 10:37:00,59.0,54.5,30.18,SSE,157,0.0,0.0,85,0.00,,SCT050,0.00,VWS V14.01,2013-09-18 14:37:00,
2013-09-18 10:42:00,59.3,54.8,30.18,SSE,160,0.0,2.0,85,0.00,,SCT050,0.00,VWS V14.01,2013-09-18 14:42:00,
2013-09-18 10:45:00,57.6,53.8,30.18,ENE,75,0.0,0.0,87,0.00,,CLR,0.00,VWS V14.01,2013-09-18 14:45:00,
2013-09-18 10:47:00,59.5,54.7,30.19,SSE,158,0.0,1.0,84,0.00,,SCT050,0.00,VWS V14.01,2013-09-18 14:47:00,
2013-09-18 10:52:00,59.9,55.1,30.19,SSE,157,0.0,0.0,84,0.00,,SCT050,0.00,VWS V14.01,2013-09-18 14:52:00,
2013-09-18 10:57:00,60.2,55.0,30.19,SSE,157,0.0,1.0,83,0.00,,SCT050,0.00,VWS V14.01,2013-09-18 14:57:00,
2013-09-18 11:00:00,58.1,53.9,30.19,ENE,75,0.0,0.0,86,0.00,,CLR,0.00,VWS V14.01,2013-09-18 15:00:00,
2013-09-18 11:02:00,60.4,54.9,30.19,SSE,164,1.0,3.0,82,0.00,,SCT050,0.00,VWS V14.01,2013-09-18 15:02:00,
2013-09-18 11:07:00,60.5,55.0,30.19,South,191,0.0,3.0,82,0.00,,SCT050,0.00,VWS V14.01,2013-09-18 15:07:00,
2013-09-18 11:12:00,60.9,55.0,30.19,South,189,0.0,2.0,81,0.00,,SCT050,0.00,VWS V14.01,2013-09-18 15:12:00,
2013-09-18 11:15:00,58.4,53.9,30.19,ENE,76,0.0,0.0,85,0.00,,CLR,0.00,VWS V14.01,2013-09-18 15:15:00,
2013-09-18 11:17:00,61.0,55.1,30.18,South,182,0.0,5.0,81,0.00,,SCT050,0.00,VWS V14.01,2013-09-18 15:17:00,
2013-09-18 11:22:00,61.0,55.1,30.18,South,188,1.0,5.0,81,0.00,,SCT050,0.00,VWS V14.01,2013-09-18 15:22:00,
2013-09-18 11:27:00,61.2,55.3,30.18,South,174,0.0,3.0,81,0.00,,SCT050,0.00,VWS V14.01,2013-09-18 15:27:00,
2013-09-18 11:30:00,58.9,54.4,30.18,SSE,160,0.0,2.0,85,0.00,,CLR,0.00,VWS V14.01,2013-09-18 15:30:00,
2013-09-18 11:32:00,61.3,55.4,30.18,South,174,0.0,2.0,81,0.00,,SCT050,0.00,VWS V14.01,2013-09-18 15:32:00,
2013-09-18 11:38:00,61.5,55.3,30.18,South,174,0.0,2.0,80,0.00,,SCT050,0.00,VWS V14.01,2013-09-18 15:38:00,
2013-09-18 11:43:00,61.6,55.7,30.18,South,174,0.0,1.0,81,0.00,,SCT050,0.00,VWS V14.01,2013-09-18 15:43:00,
2013-09-18 11:45:00,59.5,54.7,30.19,SSE,160,0.0,2.0,84,0.00,,CLR,0.00,VWS V14.01,2013-09-18 15:45:00,
2013-09-18 11:48:00,61.6,55.7,30.18,South,174,0.0,1.0,81,0.00,,SCT050,0.00,VWS V14.01,2013-09-18 15:48:00,
2013-09-18 11:53:00,61.8,55.9,30.18,South,174,0.0,1.0,81,0.00,,SCT050,0.00,VWS V14.01,2013-09-18 15:53:00,
2013-09-18 11:58:00,62.0,56.1,30.18,South,174,0.0,2.0,81,0.00,,SCT050,0.00,VWS V14.01,2013-09-18 15:58:00,
2013-09-18 12:00:00,60.2,54.7,30.19,SSE,158,0.0,3.0,82,0.00,,CLR,0.00,VWS V14.01,2013-09-18 16:00:00,
2013-09-18 12:01:00,62.1,56.2,30.17,South,174,0.0,2.0,81,0.00,,CLR,0.00,VWS V14.01,2013-09-18 16:01:00,
2013-09-18 12:06:00,62.4,56.5,30.17,South,174,0.0,0.0,81,0.00,,CLR,0.00,VWS V14.01,2013-09-18 16:06:00,
2013-09-18 12:11:00,62.7,56.8,30.17,South,174,0.0,0.0,81,0.00,,CLR,0.00,VWS V14.01,2013-09-18 16:11:00,
2013-09-18 12:15:00,60.9,55.0,30.18,South,189,0.0,0.0,81,0.00,,CLR,0.00,VWS V14.01,2013-09-18 16:15:00,
2013-09-18 12:16:00,63.1,56.8,30.17,South,174,0.0,1.0,80,0.00,,CLR,0.00,VWS V14.01,2013-09-18 16:16:00,
2013-09-18 12:21:00,63.2,56.9,30.17,South,174,0.0,0.0,80,0.00,,CLR,0.00,VWS V14.01,2013-09-18 16:21:00,
2013-09-18 12:26:00,63.7,57.1,30.17,South,174,0.0,0.0,79,0.00,,CLR,0.00,VWS V14.01,2013-09-18 16:26:00,
2013-09-18 12:30:00,61.3,55.4,30.18,South,174,0.0,2.0,81,0.00,,CLR,0.00,VWS V14.01,2013-09-18 16:30:00,
2013-09-18 12:31:00,64.0,57.7,30.17,South,174,0.0,1.0,80,0.00,,CLR,0.00,VWS V14.01,2013-09-18 16:31:00,
2013-09-18 12:36:00,64.5,57.5,30.17,South,174,0.0,0.0,78,0.00,,CLR,0.00,VWS V14.01,2013-09-18 16:36:00,
2013-09-18 12:41:00,64.7,57.7,30.17,South,174,0.0,0.0,78,0.00,,CLR,0.00,VWS V14.01,2013-09-18 16:41:00,
2013-09-18 12:45:00,61.6,55.7,30.18,South,174,0.0,1.0,81,0.00,,CLR,0.00,VWS V14.01,2013-09-18 16:45:00,
2013-09-18 12:46:00,64.8,57.4,30.17,South,174,0.0,3.0,77,0.00,,CLR,0.00,VWS V14.01,2013-09-18 16:46:00,
2013-09-18 12:52:00,65.0,58.3,30.17,South,171,0.0,0.0,79,0.00,,CLR,0.00,VWS V14.01,2013-09-18 16:52:00,
2013-09-18 12:57:00,65.2,58.2,30.17,South,181,2.0,3.0,78,0.00,,CLR,0.00,VWS V14.01,2013-09-18 16:57:00,
2013-09-18 13:00:00,62.1,56.2,30.17,South,174,0.0,2.0,81,0.00,,CLR,0.00,VWS V14.01,2013-09-18 17:00:00,
2013-09-18 13:02:00,65.6,58.6,30.16,South,181,0.0,3.0,78,0.00,,CLR,0.00,VWS V14.01,2013-09-18 17:02:00,
2013-09-18 13:07:00,66.1,58.7,30.16,South,181,0.0,4.0,77,0.00,,CLR,0.00,VWS V14.01,2013-09-18 17:07:00,
2013-09-18 13:12:00,66.4,58.6,30.16,South,181,0.0,4.0,76,0.00,,CLR,0.00,VWS V14.01,2013-09-18 17:12:00,
2013-09-18 13:15:00,62.9,57.0,30.17,South,174,0.0,1.0,81,0.00,,CLR,0.00,VWS V14.01,2013-09-18 17:15:00,
2013-09-18 13:17:00,66.8,59.4,30.16,South,181,0.0,0.0,77,0.00,,CLR,0.00,VWS V14.01,2013-09-18 17:17:00,
2013-09-18 13:22:00,66.9,59.1,30.16,South,181,0.0,0.0,76,0.00,,CLR,0.00,VWS V14.01,2013-09-18 17:22:00,
2013-09-18 13:27:00,66.9,59.1,30.16,South,181,3.0,3.0,76,0.00,,CLR,0.00,VWS V14.01,2013-09-18 17:27:00,
2013-09-18 13:30:00,64.0,57.4,30.17,South,174,0.0,1.0,79,0.00,,CLR,0.00,VWS V14.01,2013-09-18 17:30:00,
2013-09-18 13:32:00,67.3,59.5,30.16,SSW,195,2.0,5.0,76,0.00,,CLR,0.00,VWS V14.01,2013-09-18 17:32:00,
2013-09-18 13:37:00,67.3,59.1,30.16,SSW,195,0.0,5.0,75,0.00,,CLR,0.00,VWS V14.01,2013-09-18 17:37:00,
2013-09-18 13:42:00,67.6,59.4,30.16,South,176,0.0,0.0,75,0.00,,CLR,0.00,VWS V14.01,2013-09-18 17:42:00,
2013-09-18 13:45:00,64.8,57.8,30.17,South,174,0.0,3.0,78,0.00,,CLR,0.00,VWS V14.01,2013-09-18 17:45:00,
2013-09-18 13:47:00,67.8,59.2,30.15,South,176,0.0,0.0,74,0.00,,CLR,0.00,VWS V14.01,2013-09-18 17:47:00,
2013-09-18 13:52:00,67.8,59.6,30.15,South,171,0.0,1.0,75,0.00,,CLR,0.00,VWS V14.01,2013-09-18 17:52:00,
2013-09-18 13:57:00,67.8,59.6,30.15,South,171,0.0,1.0,75,0.00,,CLR,0.00,VWS V14.01,2013-09-18 17:57:00,
2013-09-18 14:00:00,65.5,58.5,30.16,South,181,0.0,3.0,78,0.00,,CLR,0.00,VWS V14.01,2013-09-18 18:00:00,
2013-09-18 14:02:00,68.3,60.1,30.14,South,172,0.0,1.0,75,0.00,,OVC110,0.00,VWS V14.01,2013-09-18 18:02:00,
2013-09-18 14:07:00,68.4,59.8,30.14,South,172,0.0,1.0,74,0.00,,OVC110,0.00,VWS V14.01,2013-09-18 18:07:00,
2013-09-18 14:12:00,68.8,60.6,30.14,South,172,0.0,1.0,75,0.00,,OVC110,0.00,VWS V14.01,2013-09-18 18:12:00,
2013-09-18 14:15:00,66.6,58.8,30.16,South,181,0.0,0.0,76,0.00,,CLR,0.00,VWS V14.01,2013-09-18 18:15:00,
2013-09-18 14:17:00,68.9,60.3,30.14,South,172,0.0,3.0,74,0.00,,OVC110,0.00,VWS V14.01,2013-09-18 18:17:00,
2013-09-18 14:22:00,69.4,61.1,30.14,South,172,0.0,1.0,75,0.00,,OVC110,0.00,VWS V14.01,2013-09-18 18:22:00,
2013-09-18 14:27:00,69.9,61.2,30.14,SW,220,0.0,3.0,74,0.00,,OVC110,0.00,VWS V14.01,2013-09-18 18:27:00,
2013-09-18 14:30:00,67.1,59.3,30.16,South,181,0.0,3.0,76,0.00,,CLR,0.00,VWS V14.01,2013-09-18 18:30:00,
2013-09-18 14:32:00,70.1,60.7,30.13,SW,220,0.0,2.0,72,0.00,,OVC110,0.00,VWS V14.01,2013-09-18 18:32:00,
2013-09-18 14:37:00,70.1,60.7,30.13,SW,220,0.0,0.0,72,0.00,,OVC110,0.00,VWS V14.01,2013-09-18 18:37:00,
2013-09-18 14:42:00,70.1,60.7,30.13,SW,220,0.0,0.0,72,0.00,,OVC110,0.00,VWS V14.01,2013-09-18 18:42:00,
2013-09-18 14:45:00,67.6,59.4,30.15,South,176,0.0,0.0,75,0.00,,CLR,0.00,VWS V14.01,2013-09-18 18:45:00,
2013-09-18 14:48:00,70.3,61.2,30.13,SSW,210,0.0,0.0,73,0.00,,OVC110,0.00,VWS V14.01,2013-09-18 18:48:00,
2013-09-18 14:53:00,70.4,61.0,30.13,SSW,210,0.0,0.0,72,0.00,,OVC110,0.00,VWS V14.01,2013-09-18 18:53:00,
2013-09-18 14:58:00,70.6,61.5,30.13,SSW,208,0.0,4.0,73,0.00,,OVC110,0.00,VWS V14.01,2013-09-18 18:58:00,
2013-09-18 15:00:00,68.1,59.9,30.14,South,172,0.0,1.0,75,0.00,,CLR,0.00,VWS V14.01,2013-09-18 19:00:00,
2013-09-18 15:03:00,70.8,61.3,30.12,SSW,208,0.0,4.0,72,0.00,,OVC090,0.00,VWS V14.01,2013-09-18 19:03:00,
2013-09-18 15:08:00,70.6,61.9,30.12,SSW,212,0.0,4.0,74,0.00,,OVC090,0.00,VWS V14.01,2013-09-18 19:08:00,
2013-09-18 15:13:00,70.8,62.1,30.12,SSW,212,0.0,4.0,74,0.00,,OVC090,0.00,VWS V14.01,2013-09-18 19:13:00,
2013-09-18 15:15:00,68.9,60.3,30.14,South,171,0.0,3.0,74,0.00,,CLR,0.00,VWS V14.01,2013-09-18 19:15:00,
2013-09-18 15:18:00,70.8,61.3,30.11,SSW,202,0.0,0.0,72,0.00,,OVC090,0.00,VWS V14.01,2013-09-18 19:18:00,
2013-09-18 15:23:00,70.8,61.7,30.11,SSW,202,0.0,0.0,73,0.00,,OVC090,0.00,VWS V14.01,2013-09-18 19:23:00,
2013-09-18 15:28:00,70.8,62.1,30.11,ENE,72,0.0,1.0,74,0.00,,OVC090,0.00,VWS V14.01,2013-09-18 19:28:00,
2013-09-18 15:30:00,70.1,60.3,30.13,SW,220,0.0,3.0,71,0.00,,CLR,0.00,VWS V14.01,2013-09-18 19:30:00,
2013-09-18 15:33:00,70.9,61.8,30.10,ENE,72,0.0,1.0,73,0.00,,OVC090,0.00,VWS V14.01,2013-09-18 19:33:00,
2013-09-18 15:38:00,70.9,61.4,30.10,East,90,0.0,1.0,72,0.00,,OVC090,0.00,VWS V14.01,2013-09-18 19:38:00,
2013-09-18 15:43:00,71.5,62.4,30.10,East,79,0.0,1.0,73,0.00,,OVC090,0.00,VWS V14.01,2013-09-18 19:43:00,
2013-09-18 15:45:00,70.1,61.0,30.13,SW,220,0.0,0.0,73,0.00,,CLR,0.00,VWS V14.01,2013-09-18 19:45:00,
2013-09-18 15:48:00,72.0,62.5,30.10,SE,141,0.0,0.0,72,0.00,,OVC090,0.00,VWS V14.01,2013-09-18 19:48:00,
2013-09-18 15:53:00,72.5,62.6,30.10,SE,141,0.0,0.0,71,0.00,,OVC090,0.00,VWS V14.01,2013-09-18 19:53:00,
2013-09-18 15:58:00,73.0,62.7,30.10,SSE,147,0.0,3.0,70,0.00,,OVC090,0.00,VWS V14.01,2013-09-18 19:58:00,
2013-09-18 16:00:00,70.8,62.1,30.12,SSW,208,0.0,4.0,74,0.00,,CLR,0.00,VWS V14.01,2013-09-18 20:00:00,
2013-09-18 16:03:00,73.5,62.3,30.09,SSE,147,0.0,1.0,68,0.00,,FEW024,0.00,VWS V14.01,2013-09-18 20:03:00,
2013-09-18 16:08:00,73.2,62.8,30.09,SSE,147,0.0,0.0,70,0.00,,FEW024,0.00,VWS V14.01,2013-09-18 20:08:00,
2013-09-18 16:13:00,72.7,62.8,30.09,SSE,147,0.0,0.0,71,0.00,,FEW024,0.00,VWS V14.01,2013-09-18 20:13:00,
2013-09-18 16:15:00,70.8,61.7,30.11,SSW,202,0.0,0.0,73,0.00,,CLR,0.00,VWS V14.01,2013-09-18 20:15:00,
2013-09-18 16:18:00,73.0,63.0,30.09,East,80,0.0,0.0,71,0.00,,FEW024,0.00,VWS V14.01,2013-09-18 20:18:00,
2013-09-18 16:23:00,73.5,63.1,30.09,South,185,0.0,3.0,70,0.00,,FEW024,0.00,VWS V14.01,2013-09-18 20:23:00,
2013-09-18 16:28:00,73.9,63.1,30.09,South,174,0.0,3.0,69,0.00,,FEW024,0.00,VWS V14.01,2013-09-18 20:28:00,
2013-09-18 16:30:00,70.9,61.4,30.10,ENE,71,0.0,1.0,72,0.00,,CLR,0.00,VWS V14.01,2013-09-18 20:30:00,
2013-09-18 16:33:00,74.0,62.8,30.08,ESE,110,0.0,2.0,68,0.00,,FEW024,0.00,VWS V14.01,2013-09-18 20:33:00,
2013-09-18 16:38:00,73.7,63.7,30.08,SSE,162,0.0,1.0,71,0.00,,FEW024,0.00,VWS V14.01,2013-09-18 20:38:00,
2013-09-18 16:43:00,73.5,63.5,30.08,SE,127,0.0,1.0,71,0.00,,FEW024,0.00,VWS V14.01,2013-09-18 20:43:00,
2013-09-18 16:45:00,71.5,62.0,30.10,SE,137,0.0,1.0,72,0.00,,CLR,0.00,VWS V14.01,2013-09-18 20:45:00,
2013-09-18 16:48:00,73.3,62.9,30.08,ESE,109,0.0,0.0,70,0.00,,FEW024,0.00,VWS V14.01,2013-09-18 20:48:00,
2013-09-18 16:53:00,73.5,63.1,30.08,SSW,210,0.0,5.0,70,0.00,,FEW024,0.00,VWS V14.01,2013-09-18 20:53:00,
2013-09-18 16:58:00,73.5,62.7,30.08,ENE,78,0.0,5.0,69,0.00,,FEW024,0.00,VWS V14.01,2013-09-18 20:58:00,
2013-09-18 17:00:00,73.2,63.2,30.09,SSE,147,0.0,3.0,71,0.00,,CLR,0.00,VWS V14.01,2013-09-18 21:00:00,
2013-09-18 17:03:00,73.0,63.0,30.08,East,80,0.0,4.0,71,0.00,,CLR,0.00,VWS V14.01,2013-09-18 21:03:00,
2013-09-18 17:08:00,72.5,63.0,30.08,East,80,0.0,4.0,72,0.00,,CLR,0.00,VWS V14.01,2013-09-18 21:08:00,
2013-09-18 17:13:00,72.0,63.3,30.08,ENE,71,0.0,0.0,74,0.00,,CLR,0.00,VWS V14.01,2013-09-18 21:13:00,
2013-09-18 17:15:00,72.7,63.2,30.09,SSE,147,0.0,0.0,72,0.00,,CLR,0.00,VWS V14.01,2013-09-18 21:15:00,
2013-09-18 17:18:00,71.8,63.1,30.08,ENE,71,0.0,1.0,74,0.00,,CLR,0.00,VWS V14.01,2013-09-18 21:18:00,
2013-09-18 17:24:00,71.5,62.8,30.08,ENE,58,0.0,1.0,74,0.00,,CLR,0.00,VWS V14.01,2013-09-18 21:24:00,
2013-09-18 17:29:00,71.1,62.8,30.09,ENE,58,0.0,0.0,75,0.00,,CLR,0.00,VWS V14.01,2013-09-18 21:29:00,
2013-09-18 17:30:00,74.0,63.6,30.08,South,176,1.0,3.0,70,0.00,,CLR,0.00,VWS V14.01,2013-09-18 21:30:00,
2013-09-18 17:34:00,71.3,63.0,30.09,ENE,58,0.0,1.0,75,0.00,,BKN037,0.00,VWS V14.01,2013-09-18 21:34:00,
2013-09-18 17:39:00,71.6,63.3,30.09,SSW,196,3.0,4.0,75,0.00,,BKN037,0.00,VWS V14.01,2013-09-18 21:39:00,
2013-09-18 17:44:00,71.8,63.1,30.08,South,182,0.0,5.0,74,0.00,,BKN037,0.00,VWS V14.01,2013-09-18 21:44:00,
2013-09-18 17:45:00,73.5,62.7,30.08,ESE,109,0.0,1.0,69,0.00,,CLR,0.00,VWS V14.01,2013-09-18 21:45:00,
2013-09-18 17:49:00,72.0,63.3,30.08,SSW,193,0.0,3.0,74,0.00,,BKN037,0.00,VWS V14.01,2013-09-18 21:49:00,
2013-09-18 17:54:00,72.1,63.4,30.08,SSE,165,0.0,0.0,74,0.00,,BKN037,0.00,VWS V14.01,2013-09-18 21:54:00,
2013-09-18 17:59:00,72.3,63.6,30.08,South,172,0.0,0.0,74,0.00,,BKN037,0.00,VWS V14.01,2013-09-18 21:59:00,
2013-09-18 18:00:00,73.5,62.7,30.08,ENE,78,0.0,5.0,69,0.00,,CLR,0.00,VWS V14.01,2013-09-18 22:00:00,
2013-09-18 18:05:00,72.0,63.3,30.08,SSW,208,0.0,0.0,74,0.00,,FEW023,0.00,VWS V14.01,2013-09-18 22:05:00,
2013-09-18 18:10:00,71.5,63.2,30.08,SSE,165,0.0,1.0,75,0.00,,FEW023,0.00,VWS V14.01,2013-09-18 22:10:00,
2013-09-18 18:15:00,70.9,63.3,30.08,ENE,72,0.0,3.0,77,0.00,,FEW023,0.00,VWS V14.01,2013-09-18 22:15:00,
2013-09-18 18:20:00,70.1,62.9,30.08,East,80,0.0,2.0,78,0.00,,FEW023,0.00,VWS V14.01,2013-09-18 22:20:00,
2013-09-18 18:25:00,69.6,62.8,30.08,East,86,0.0,1.0,79,0.00,,FEW023,0.00,VWS V14.01,2013-09-18 22:25:00,
2013-09-18 18:30:00,69.3,62.9,30.09,South,191,0.0,2.0,80,0.00,,FEW023,0.00,VWS V14.01,2013-09-18 22:30:00,
2013-09-18 18:35:00,68.9,62.5,30.09,South,185,0.0,5.0,80,0.00,,FEW023,0.00,VWS V14.01,2013-09-18 22:35:00,
2013-09-18 18:40:00,68.6,62.5,30.09,South,182,0.0,2.0,81,0.00,,FEW023,0.00,VWS V14.01,2013-09-18 22:40:00,
2013-09-18 18:45:00,68.4,62.3,30.08,South,179,0.0,5.0,81,0.00,,FEW023,0.00,VWS V14.01,2013-09-18 22:45:00,
2013-09-18 18:50:00,68.3,62.6,30.08,South,184,1.0,2.0,82,0.00,,FEW023,0.00,VWS V14.01,2013-09-18 22:50:00,
2013-09-18 18:55:00,67.9,62.2,30.08,South,188,0.0,2.0,82,0.00,,FEW023,0.00,VWS V14.01,2013-09-18 22:55:00,
2013-09-18 19:00:00,67.6,62.3,30.08,South,188,0.0,1.0,83,0.00,,FEW023,0.00,VWS V14.01,2013-09-18 23:00:00,
2013-09-18 19:05:00,67.4,62.4,30.08,South,188,0.0,1.0,84,0.00,,CLR,0.00,VWS V14.01,2013-09-18 23:05:00,
2013-09-18 19:10:00,67.1,62.1,30.08,South,181,0.0,5.0,84,0.00,,CLR,0.00,VWS V14.01,2013-09-18 23:10:00,
2013-09-18 19:15:00,66.8,61.8,30.09,SSE,168,2.0,5.0,84,0.00,,CLR,0.00,VWS V14.01,2013-09-18 23:15:00,
2013-09-18 19:20:00,66.4,61.8,30.09,SSW,195,0.0,5.0,85,0.00,,CLR,0.00,VWS V14.01,2013-09-18 23:20:00,
2013-09-18 19:25:00,66.3,61.7,30.09,SSW,195,0.0,0.0,85,0.00,,CLR,0.00,VWS V14.01,2013-09-18 23:25:00,
2013-09-18 19:30:00,66.0,61.7,30.09,SSW,195,0.0,0.0,86,0.00,,CLR,0.00,VWS V14.01,2013-09-18 23:30:00,
2013-09-18 19:35:00,65.8,61.8,30.09,SSW,193,0.0,2.0,87,0.00,,CLR,0.00,VWS V14.01,2013-09-18 23:35:00,
2013-09-18 19:40:00,65.5,61.5,30.09,SSW,193,0.0,2.0,87,0.00,,CLR,0.00,VWS V14.01,2013-09-18 23:40:00,
2013-09-18 19:45:00,65.3,61.3,30.08,SSW,193,0.0,0.0,87,0.00,,CLR,0.00,VWS V14.01,2013-09-18 23:45:00,
2013-09-18 19:50:00,65.0,61.4,30.08,SSW,193,0.0,0.0,88,0.00,,CLR,0.00,VWS V14.01,2013-09-18 23:50:00,
2013-09-18 19:55:00,64.8,61.5,30.08,SSW,193,0.0,0.0,89,0.00,,CLR,0.00,VWS V14.01,2013-09-18 23:55:00,
2013-09-18 20:00:00,67.6,62.3,30.08,South,188,0.0,1.0,83,0.00,,CLR,0.00,VWS V14.01,2013-09-19 00:00:00,
2013-09-18 20:01:00,64.7,61.4,30.09,SSW,193,0.0,0.0,89,0.00,,CLR,0.00,VWS V14.01,2013-09-19 00:01:00,
2013-09-18 20:06:00,64.5,61.2,30.09,SSW,193,0.0,0.0,89,0.00,,CLR,0.00,VWS V14.01,2013-09-19 00:06:00,
2013-09-18 20:11:00,64.3,61.3,30.09,SSW,193,0.0,0.0,90,0.00,,CLR,0.00,VWS V14.01,2013-09-19 00:11:00,
2013-09-18 20:15:00,66.8,61.8,30.09,SSE,157,1.0,5.0,84,0.00,,CLR,0.00,VWS V14.01,2013-09-19 00:15:00,
2013-09-18 20:16:00,64.2,61.2,30.09,SSW,193,0.0,0.0,90,0.00,,CLR,0.00,VWS V14.01,2013-09-19 00:16:00,
2013-09-18 20:21:00,64.2,61.2,30.09,SSW,193,0.0,0.0,90,0.00,,CLR,0.00,VWS V14.01,2013-09-19 00:21:00,
2013-09-18 20:26:00,64.0,61.0,30.09,SSW,193,0.0,0.0,90,0.00,,CLR,0.00,VWS V14.01,2013-09-19 00:26:00,
2013-09-18 20:30:00,66.0,61.7,30.09,SSW,195,0.0,0.0,86,0.00,,CLR,0.00,VWS V14.01,2013-09-19 00:30:00,
2013-09-18 20:31:00,63.9,60.9,30.10,SSW,193,0.0,0.0,90,0.00,,CLR,0.00,VWS V14.01,2013-09-19 00:31:00,
2013-09-18 20:36:00,63.9,61.2,30.10,SSW,193,0.0,0.0,91,0.00,,CLR,0.00,VWS V14.01,2013-09-19 00:36:00,
2013-09-18 20:41:00,63.7,61.0,30.10,SSW,193,0.0,0.0,91,0.00,,CLR,0.00,VWS V14.01,2013-09-19 00:41:00,
2013-09-18 20:45:00,65.3,61.3,30.08,SSW,193,0.0,0.0,87,0.00,,CLR,0.00,VWS V14.01,2013-09-19 00:45:00,
2013-09-18 20:46:00,63.5,60.8,30.10,SSW,193,0.0,0.0,91,0.00,,CLR,0.00,VWS V14.01,2013-09-19 00:46:00,
2013-09-18 20:51:00,63.5,60.8,30.10,SSW,193,0.0,0.0,91,0.00,,CLR,0.00,VWS V14.01,2013-09-19 00:51:00,
2013-09-18 20:56:00,63.4,61.0,30.10,SSW,193,0.0,0.0,92,0.00,,CLR,0.00,VWS V14.01,2013-09-19 00:56:00,
2013-09-18 21:00:00,64.7,61.4,30.09,SSW,193,0.0,0.0,89,0.00,,CLR,0.00,VWS V14.01,2013-09-19 01:00:00,
2013-09-18 21:01:00,63.5,61.1,30.11,SSW,193,0.0,0.0,92,0.00,,SCT017,0.00,VWS V14.01,2013-09-19 01:01:00,
2013-09-18 21:06:00,63.5,61.1,30.11,SSW,193,0.0,0.0,92,0.00,,SCT017,0.00,VWS V14.01,2013-09-19 01:06:00,
2013-09-18 21:11:00,63.7,61.3,30.11,SSW,193,0.0,1.0,92,0.00,,SCT017,0.00,VWS V14.01,2013-09-19 01:11:00,
2013-09-18 21:15:00,64.3,61.3,30.09,SSW,193,0.0,0.0,90,0.00,,CLR,0.00,VWS V14.01,2013-09-19 01:15:00,
2013-09-18 21:16:00,63.7,61.3,30.11,SSW,193,0.0,0.0,92,0.00,,SCT017,0.00,VWS V14.01,2013-09-19 01:16:00,
2013-09-18 21:21:00,63.7,61.3,30.11,SSW,193,0.0,0.0,92,0.00,,SCT017,0.00,VWS V14.01,2013-09-19 01:21:00,
2013-09-18 21:26:00,63.9,61.5,30.11,SSW,192,0.0,1.0,92,0.00,,SCT017,0.00,VWS V14.01,2013-09-19 01:26:00,
2013-09-18 21:30:00,63.9,60.9,30.10,SSW,193,0.0,0.0,90,0.00,,CLR,0.00,VWS V14.01,2013-09-19 01:30:00,
2013-09-18 21:31:00,63.9,61.5,30.11,SSW,192,0.0,1.0,92,0.00,,OVC037,0.00,VWS V14.01,2013-09-19 01:31:00,
2013-09-18 21:36:00,63.9,61.5,30.11,SSW,192,0.0,0.0,92,0.00,,OVC037,0.00,VWS V14.01,2013-09-19 01:36:00,
2013-09-18 21:41:00,63.9,61.8,30.11,South,191,0.0,0.0,93,0.00,,OVC037,0.00,VWS V14.01,2013-09-19 01:41:00,
2013-09-18 21:45:00,63.7,61.0,30.10,SSW,193,0.0,0.0,91,0.00,,CLR,0.00,VWS V14.01,2013-09-19 01:45:00,
2013-09-18 21:46:00,63.9,61.8,30.11,South,191,0.0,0.0,93,0.00,,OVC037,0.00,VWS V14.01,2013-09-19 01:46:00,
2013-09-18 21:51:00,63.9,61.8,30.11,South,179,0.0,2.0,93,0.00,,OVC037,0.00,VWS V14.01,2013-09-19 01:51:00,
2013-09-18 21:56:00,64.0,61.9,30.11,South,179,1.0,2.0,93,0.00,,OVC037,0.00,VWS V14.01,2013-09-19 01:56:00,
2013-09-18 22:00:00,63.4,61.0,30.11,SSW,193,0.0,0.0,92,0.00,,CLR,0.00,VWS V14.01,2013-09-19 02:00:00,
2013-09-18 22:01:00,64.0,61.9,30.11,South,179,0.0,1.0,93,0.00,,OVC017,0.00,VWS V14.01,2013-09-19 02:01:00,
2013-09-18 22:06:00,64.0,61.9,30.11,South,179,0.0,0.0,93,0.00,,OVC017,0.00,VWS V14.01,2013-09-19 02:06:00,
2013-09-18 22:12:00,64.0,61.9,30.11,South,179,0.0,0.0,93,0.00,,OVC017,0.00,VWS V14.01,2013-09-19 02:12:00,
2013-09-18 22:15:00,63.7,61.3,30.11,SSW,193,0.0,0.0,92,0.00,,CLR,0.00,VWS V14.01,2013-09-19 02:15:00,
2013-09-18 22:17:00,64.0,61.9,30.11,South,179,0.0,0.0,93,0.00,,OVC014,0.00,VWS V14.01,2013-09-19 02:17:00,
2013-09-18 22:22:00,64.0,61.9,30.11,South,179,0.0,0.0,93,0.00,,OVC014,0.00,VWS V14.01,2013-09-19 02:22:00,
2013-09-18 22:27:00,64.2,62.1,30.11,South,184,0.0,2.0,93,0.00,,OVC014,0.00,VWS V14.01,2013-09-19 02:27:00,
2013-09-18 22:30:00,63.9,61.5,30.11,SSW,192,0.0,1.0,92,0.00,,CLR,0.00,VWS V14.01,2013-09-19 02:30:00,
2013-09-18 22:32:00,64.2,62.1,30.11,South,185,0.0,2.0,93,0.00,,OVC014,0.00,VWS V14.01,2013-09-19 02:32:00,
2013-09-18 22:37:00,64.2,62.1,30.11,South,185,0.0,0.0,93,0.00,,OVC014,0.00,VWS V14.01,2013-09-19 02:37:00,
2013-09-18 22:42:00,64.3,62.2,30.11,South,184,0.0,0.0,93,0.00,,OVC014,0.00,VWS V14.01,2013-09-19 02:42:00,
2013-09-18 22:45:00,63.9,61.8,30.11,SSW,192,0.0,0.0,93,0.00,,CLR,0.00,VWS V14.01,2013-09-19 02:45:00,
2013-09-18 22:47:00,64.3,62.2,30.11,South,182,0.0,1.0,93,0.00,,OVC014,0.00,VWS V14.01,2013-09-19 02:47:00,
2013-09-18 22:52:00,64.3,62.2,30.11,South,182,0.0,1.0,93,0.00,,OVC014,0.00,VWS V14.01,2013-09-19 02:52:00,
2013-09-18 22:57:00,64.2,62.1,30.11,South,182,0.0,0.0,93,0.00,,OVC014,0.00,VWS V14.01,2013-09-19 02:57:00,
2013-09-18 23:00:00,64.0,61.9,30.11,South,179,0.0,1.0,93,0.00,,CLR,0.00,VWS V14.01,2013-09-19 03:00:00,
2013-09-18 23:02:00,64.2,62.1,30.11,South,182,0.0,0.0,93,0.00,,,0.00,VWS V14.01,2013-09-19 03:02:00,
2013-09-18 23:07:00,64.0,61.9,30.11,South,184,0.0,2.0,93,0.00,,,0.00,VWS V14.01,2013-09-19 03:07:00,
2013-09-18 23:12:00,64.0,61.9,30.11,South,184,0.0,1.0,93,0.00,,,0.00,VWS V14.01,2013-09-19 03:12:00,
2013-09-18 23:15:00,64.0,61.9,30.11,South,179,0.0,0.0,93,0.00,,CLR,0.00,VWS V14.01,2013-09-19 03:15:00,
2013-09-18 23:17:00,63.9,61.8,30.11,South,184,0.0,0.0,93,0.00,,,0.00,VWS V14.01,2013-09-19 03:17:00,
2013-09-18 23:22:00,63.9,61.8,30.11,South,184,0.0,0.0,93,0.00,,,0.00,VWS V14.01,2013-09-19 03:22:00,
2013-09-18 23:27:00,63.7,61.6,30.11,South,184,0.0,0.0,93,0.00,,,0.00,VWS V14.01,2013-09-19 03:27:00,
2013-09-18 23:30:00,64.2,62.1,30.11,South,184,0.0,2.0,93,0.00,,CLR,0.00,VWS V14.01,2013-09-19 03:30:00,
2013-09-18 23:32:00,63.7,61.6,30.11,South,184,0.0,0.0,93,0.00,,,0.00,VWS V14.01,2013-09-19 03:32:00,
2013-09-18 23:37:00,63.5,61.4,30.11,South,184,0.0,0.0,93,0.00,,,0.00,VWS V14.01,2013-09-19 03:37:00,
2013-09-18 23:42:00,63.5,61.4,30.11,South,184,0.0,0.0,93,0.00,,,0.00,VWS V14.01,2013-09-19 03:42:00,
2013-09-18 23:45:00,64.3,62.2,30.11,South,182,0.0,0.0,93,0.00,,CLR,0.00,VWS V14.01,2013-09-19 03:45:00,
2013-09-18 23:47:00,63.4,61.3,30.10,South,184,0.0,0.0,93,0.00,,,0.00,VWS V14.01,2013-09-19 03:47:00,
2013-09-18 23:52:00,63.4,61.7,30.10,South,184,0.0,0.0,94,0.00,,,0.00,VWS V14.01,2013-09-19 03:52:00,
2013-09-18 23:57:00,63.2,61.5,30.10,South,184,0.0,0.0,94,0.00,,,0.00,VWS V14.01,2013-09-19 03:57:00,